| time (UTC) | temp F | wind direction | speed MPH | gust MPH | rain 1hr in | rain 24hr in | rain mn in | humidity % | barometer mb |
| 20260507203055 | 62 | 324 | 3.0 | 7.0 | 0.00 | 0.00 | 0.00 | 60 | 1017.1 |
| 20260507201539 | 62 | 282 | 2.0 | 6.0 | 0.00 | 0.00 | 0.00 | 60 | 1017.2 |
| 20260507200023 | 61 | 323 | 1.0 | 6.0 | 0.00 | 0.00 | 0.00 | 61 | 1017.3 |
| 20260507194510 | 62 | 304 | 2.0 | 7.0 | 0.00 | 0.00 | 0.00 | 62 | 1017.5 |
| 20260507193029 | 61 | 287 | 1.0 | 7.0 | 0.00 | 0.00 | 0.00 | 63 | 1017.7 |
| 20260507191512 | 61 | 127 | 1.0 | 3.0 | 0.00 | 0.00 | 0.00 | 63 | 1017.8 |
| 20260507190058 | 60 | 288 | 1.0 | 4.0 | 0.00 | 0.00 | 0.00 | 64 | 1018.0 |
| 20260507184540 | 60 | 276 | 2.0 | 4.0 | 0.00 | 0.00 | 0.00 | 64 | 1018.2 |
| 20260507183035 | 59 | 335 | 1.0 | 5.0 | 0.00 | 0.00 | 0.00 | 66 | 1018.4 |
| 20260507181507 | 59 | 98 | 0.0 | 5.0 | 0.00 | 0.00 | 0.00 | 68 | 1018.6 |
| 20260507180057 | 58 | 297 | 1.0 | 6.0 | 0.00 | 0.00 | 0.00 | 67 | 1018.6 |
| 20260507174551 | 57 | 313 | 1.0 | 5.0 | 0.00 | 0.00 | 0.00 | 68 | 1018.8 |
| 20260507173035 | 57 | 307 | 1.0 | 4.0 | 0.00 | 0.00 | 0.00 | 68 | 1018.9 |
| 20260507171510 | 56 | 85 | 0.0 | 6.0 | 0.00 | 0.00 | 0.00 | 71 | 1018.9 |
| 20260507170116 | 56 | 3 | 0.0 | 4.0 | 0.00 | 0.00 | 0.00 | 70 | 1019.0 |
| 20260507164554 | 56 | 352 | 1.0 | 3.0 | 0.00 | 0.00 | 0.00 | 71 | 1019.0 |
| 20260507163026 | 55 | 287 | 1.0 | 4.0 | 0.00 | 0.00 | 0.00 | 72 | 1019.0 |
| 20260507161512 | 54 | 312 | 1.0 | 5.0 | 0.00 | 0.00 | 0.00 | 72 | 1019.0 |
| 20260507160104 | 54 | 300 | 0.0 | 4.0 | 0.00 | 0.00 | 0.00 | 73 | 1019.0 |
| 20260507154550 | 52 | 285 | 1.0 | 3.0 | 0.00 | 0.00 | 0.00 | 75 | 1019.1 |
| 20260507153102 | 51 | 266 | 1.0 | 4.0 | 0.00 | 0.00 | 0.00 | 75 | 1019.2 |
| 20260507151548 | 51 | 62 | 1.0 | 5.0 | 0.00 | 0.00 | 0.00 | 76 | 1019.2 |
| 20260507150033 | 51 | 276 | 1.0 | 5.0 | 0.00 | 0.00 | 0.00 | 76 | 1019.2 |
| 20260507144519 | 51 | 278 | 1.0 | 3.0 | 0.00 | 0.00 | 0.00 | 76 | 1019.1 |
| 20260507143127 | 51 | 314 | 0.0 | 3.0 | 0.00 | 0.00 | 0.00 | 77 | 1019.0 |
| 20260507141557 | 51 | 287 | 1.0 | 4.0 | 0.00 | 0.00 | 0.00 | 77 | 1019.1 |
| 20260507140026 | 51 | 289 | 0.0 | 2.0 | 0.00 | 0.00 | 0.00 | 77 | 1018.9 |
| 20260507134537 | 51 | 314 | 0.0 | 1.0 | 0.00 | 0.00 | 0.00 | 77 | 1018.8 |
| 20260507133021 | 51 | 276 | 0.0 | 2.0 | 0.00 | 0.00 | 0.00 | 77 | 1018.7 |
| 20260507131507 | 51 | 283 | 1.0 | 4.0 | 0.00 | 0.00 | 0.00 | 76 | 1018.7 |
| 20260507130059 | 51 | 300 | 1.0 | 4.0 | 0.00 | 0.00 | 0.00 | 76 | 1018.8 |
| 20260507124542 | 51 | 262 | 1.0 | 4.0 | 0.00 | 0.00 | 0.00 | 77 | 1018.7 |
| 20260507123030 | 51 | 277 | 0.0 | 2.0 | 0.00 | 0.00 | 0.00 | 77 | 1018.7 |
| 20260507121519 | 51 | 280 | 0.0 | 2.0 | 0.00 | 0.00 | 0.00 | 77 | 1018.8 |
| 20260507120006 | 52 | 256 | 1.0 | 4.0 | 0.00 | 0.00 | 0.00 | 76 | 1018.9 |
| 20260507114516 | 52 | 273 | 0.0 | 3.0 | 0.00 | 0.00 | 0.00 | 76 | 1018.9 |
| 20260507113107 | 52 | 288 | 0.0 | 2.0 | 0.00 | 0.00 | 0.00 | 77 | 1019.0 |
| 20260507111539 | 52 | 288 | 1.0 | 5.0 | 0.00 | 0.00 | 0.00 | 76 | 1019.0 |
| 20260507110025 | 52 | 277 | 0.0 | 5.0 | 0.00 | 0.00 | 0.00 | 76 | 1019.0 |
| 20260507104507 | 53 | 273 | 0.0 | 2.0 | 0.00 | 0.00 | 0.00 | 77 | 1019.1 |
| 20260507103059 | 53 | 289 | 0.0 | 3.0 | 0.00 | 0.00 | 0.00 | 77 | 1019.1 |
| 20260507101606 | 53 | 266 | 0.0 | 6.0 | 0.00 | 0.00 | 0.00 | 77 | 1019.1 |
| 20260507100053 | 53 | 280 | 0.0 | 4.0 | 0.00 | 0.00 | 0.00 | 77 | 1019.3 |
| 20260507094539 | 53 | 277 | 1.0 | 5.0 | 0.00 | 0.00 | 0.00 | 76 | 1019.3 |
| 20260507093021 | 53 | 270 | 2.0 | 5.0 | 0.00 | 0.00 | 0.00 | 76 | 1019.4 |
| 20260507091604 | 54 | 257 | 1.0 | 5.0 | 0.00 | 0.00 | 0.00 | 77 | 1019.5 |
| 20260507090050 | 54 | 281 | 1.0 | 3.0 | 0.00 | 0.00 | 0.00 | 77 | 1019.5 |
| 20260507084533 | 54 | 287 | 0.0 | 4.0 | 0.00 | 0.00 | 0.00 | 77 | 1019.5 |
| 20260507083017 | 54 | 287 | 0.0 | 3.0 | 0.00 | 0.00 | 0.00 | 78 | 1019.6 |
| 20260507081606 | 54 | 266 | 0.0 | 3.0 | 0.00 | 0.00 | 0.00 | 78 | 1019.6 |
| 20260507080051 | 54 | 276 | 1.0 | 5.0 | 0.00 | 0.00 | 0.00 | 78 | 1019.5 |
| 20260507074539 | 54 | 270 | 0.0 | 3.0 | 0.00 | 0.00 | 0.00 | 79 | 1019.6 |
| 20260507073118 | 54 | 266 | 0.0 | 3.0 | 0.00 | 0.00 | 0.00 | 78 | 1019.4 |
| 20260507071605 | 54 | 262 | 1.0 | 5.0 | 0.00 | 0.00 | 0.00 | 78 | 1019.4 |
| 20260507070051 | 55 | 272 | 0.0 | 3.0 | 0.00 | 0.00 | 0.00 | 79 | 1019.3 |
| 20260507064544 | 55 | 279 | 0.0 | 3.0 | 0.00 | 0.00 | 0.00 | 78 | 1019.4 |
| 20260507063020 | 55 | 267 | 0.0 | 5.0 | 0.00 | 0.00 | 0.00 | 78 | 1019.4 |
| 20260507061506 | 55 | 275 | 1.0 | 4.0 | 0.00 | 0.00 | 0.00 | 78 | 1019.4 |
| 20260507060105 | 55 | 271 | 2.0 | 5.0 | 0.00 | 0.00 | 0.00 | 78 | 1019.5 |
| 20260507054544 | 55 | 286 | 2.0 | 5.0 | 0.00 | 0.00 | 0.00 | 78 | 1019.4 |
| 20260507053035 | 55 | 293 | 2.0 | 5.0 | 0.00 | 0.00 | 0.00 | 77 | 1019.4 |
| 20260507051517 | 56 | 309 | 2.0 | 6.0 | 0.00 | 0.00 | 0.00 | 76 | 1019.4 |
| 20260507050006 | 56 | 294 | 1.0 | 5.0 | 0.00 | 0.00 | 0.00 | 77 | 1019.4 |
| 20260507044555 | 56 | 276 | 2.0 | 8.0 | 0.00 | 0.00 | 0.00 | 76 | 1019.4 |
| 20260507043038 | 57 | 278 | 1.0 | 5.0 | 0.00 | 0.00 | 0.00 | 76 | 1019.2 |
| 20260507041523 | 58 | 263 | 1.0 | 5.0 | 0.00 | 0.00 | 0.00 | 76 | 1019.1 |
| 20260507040009 | 58 | 278 | 2.0 | 9.0 | 0.00 | 0.00 | 0.00 | 76 | 1018.9 |
| 20260507034620 | 58 | 260 | 2.0 | 8.0 | 0.00 | 0.00 | 0.00 | 76 | 1018.7 |
| 20260507033100 | 59 | 284 | 1.0 | 8.0 | 0.00 | 0.00 | 0.00 | 76 | 1018.5 |
| 20260507031526 | 59 | 263 | 2.0 | 6.0 | 0.00 | 0.00 | 0.00 | 76 | 1018.3 |
| 20260507030019 | 59 | 284 | 3.0 | 7.0 | 0.00 | 0.00 | 0.00 | 75 | 1018.2 |
| 20260507024503 | 60 | 297 | 2.0 | 6.0 | 0.00 | 0.00 | 0.00 | 75 | 1017.9 |
| 20260507023056 | 61 | 273 | 2.0 | 7.0 | 0.00 | 0.00 | 0.00 | 74 | 1017.9 |
| 20260507021539 | 62 | 310 | 3.0 | 8.0 | 0.00 | 0.00 | 0.00 | 73 | 1017.9 |
| 20260507020046 | 63 | 302 | 3.0 | 6.0 | 0.00 | 0.00 | 0.00 | 72 | 1017.9 |
| 20260507014532 | 63 | 274 | 2.0 | 10.0 | 0.00 | 0.00 | 0.00 | 71 | 1018.0 |
| 20260507013016 | 64 | 306 | 3.0 | 7.0 | 0.00 | 0.00 | 0.00 | 71 | 1018.1 |
| 20260507011505 | 65 | 307 | 3.0 | 7.0 | 0.00 | 0.00 | 0.00 | 72 | 1017.8 |
| 20260507010029 | 65 | 304 | 3.0 | 8.0 | 0.00 | 0.00 | 0.00 | 72 | 1017.9 |
| 20260507004501 | 65 | 333 | 2.0 | 5.0 | 0.00 | 0.00 | 0.00 | 72 | 1017.8 |
| 20260507003051 | 66 | 333 | 2.0 | 7.0 | 0.00 | 0.00 | 0.00 | 72 | 1017.8 |
| 20260507001600 | 66 | 295 | 1.0 | 5.0 | 0.00 | 0.00 | 0.00 | 71 | 1017.8 |
| 20260507000027 | 66 | 278 | 2.0 | 6.0 | 0.00 | 0.00 | 0.00 | 70 | 1017.8 |
| 20260506234511 | 67 | 294 | 1.0 | 4.0 | 0.00 | 0.00 | 0.00 | 69 | 1017.7 |
| 20260506231539 | 67 | 212 | 0.0 | 4.0 | 0.00 | 0.00 | 0.00 | 68 | 1017.8 |
| 20260506230047 | 66 | 115 | 1.0 | 4.0 | 0.00 | 0.00 | 0.00 | 69 | 1018.0 |
| 20260506224537 | 66 | 219 | 0.0 | 3.0 | 0.00 | 0.00 | 0.00 | 69 | 1018.2 |
| 20260506223021 | 66 | 49 | 0.0 | 4.0 | 0.00 | 0.00 | 0.00 | 69 | 1018.4 |
| 20260506221530 | 66 | 219 | 0.0 | 4.0 | 0.00 | 0.00 | 0.00 | 71 | 1018.5 |
| 20260506220029 | 65 | 310 | 1.0 | 3.0 | 0.00 | 0.00 | 0.00 | 71 | 1018.5 |
| 20260506214529 | 64 | 195 | 0.0 | 1.0 | 0.00 | 0.00 | 0.00 | 74 | 1018.4 |
| 20260506213014 | 64 | 10 | 0.0 | 3.0 | 0.00 | 0.00 | 0.00 | 74 | 1018.6 |
| 20260506211603 | 64 | 283 | 0.0 | 3.0 | 0.00 | 0.00 | 0.00 | 75 | 1018.9 |
| 20260506210047 | 63 | 309 | 0.0 | 2.0 | 0.00 | 0.00 | 0.00 | 74 | 1018.9 |
| 20260506204536 | 63 | 264 | 0.0 | 2.0 | 0.00 | 0.00 | 0.00 | 75 | 1018.8 |